Change the Weather History Date:

Monday, January 27, 2014

  Actual Average (KHRO) Record (KHRO)
Temperature  
Mean Temperature 24 °F 37 °F  
Max Temperature 33 °F 47 °F 76 °F (1975)
Min Temperature 14 °F 27 °F 0 °F (1963)
Degree Days  
Heating Degree Days 42 28  
Month to date heating degree days 776  
Since 1 July heating degree days 2375  
Cooling Degree Days 0 0  
Month to date cooling degree days 0  
Year to date cooling degree days 0  
Moisture  
Dew Point -6 °F    
Average Humidity 34    
Maximum Humidity 51    
Minimum Humidity 25    
Precipitation  
Precipitation 0.00 in 0.08 in 3.76 in (2009)
Month to date precipitation 2.24  
Year to date precipitation 2.24  
Snow  
Snow 0.00 in 0.20 in 5.10 in (2000)
Month to date snowfall 3.6  
Since 1 July snowfall 5.4  
Snow Depth -    
Sea Level Pressure  
Sea Level Pressure 30.29 in    
Wind  
Wind Speed 14 mph (North)    
Max Wind Speed 23 mph    
Max Gust Speed 31 mph    
Visibility 10 miles    
Events      
T = Trace of Precipitation, MM = Missing Value Source: NWS Daily Summary

Daily Weather History Graph

Daily Weather History Graph

Search for Another Location

Airport or City:

Trip Planner

Search our weather history database for the weather conditions in past years. The results will help you decide how hot, cold, wet, or windy it might be!

Date:

Astronomy

Jan. 27, 2014 Rise Set
Actual Time 7:19 AM CST 5:33 PM CST
Civil Twilight 6:51 AM CST 6:01 PM CST
Nautical Twilight 6:20 AM CST 6:32 PM CST
Astronomical Twilight 5:49 AM CST 7:03 PM CST
Moon 4:00 AM CST (1/27) 2:21 PM CST (1/27)
Length of Visible Light 11h 09m
Length of Day
10h 14m
Waning Crescent, 14% of the Moon is Illuminated
Jan 27
Waning Crescent
Jan 30
New
Feb 6
First Quarter
Feb 14
Full
Feb 22
Last Quarter

Hourly Weather History & Observations

Time (CST) Temp. Windchill Dew Point Humidity Pressure Visibility Wind Dir Wind Speed Gust Speed Precip Events Conditions
12:15 AM 33.8 °F 23.2 °F 6.8 °F 32% 30.00 in 10.0 mi NNW 17.3 mph 26.5 mph N/A   Clear
12:35 AM 32.0 °F 20.8 °F 1.4 °F 27% 30.01 in 10.0 mi NNW 17.3 mph 28.8 mph N/A   Clear
12:55 AM 32.0 °F 21.2 °F 5.0 °F 32% 30.03 in 10.0 mi North 16.1 mph 27.6 mph N/A   Clear
1:15 AM 32.0 °F 21.2 °F 10.4 °F 41% 30.04 in 10.0 mi North 16.1 mph 24.2 mph N/A   Clear
1:35 AM 32.0 °F 19.2 °F 12.2 °F 44% 30.06 in 10.0 mi North 23.0 mph 29.9 mph N/A   Clear
1:55 AM 28.4 °F 15.8 °F 8.6 °F 43% 30.08 in 10.0 mi North 18.4 mph 29.9 mph N/A   Partly Cloudy
2:15 AM 28.4 °F 16.2 °F 10.4 °F 47% 30.09 in 10.0 mi North 17.3 mph 23.0 mph N/A   Clear
2:35 AM 26.6 °F 14.3 °F 10.4 °F 51% 30.11 in 10.0 mi North 16.1 mph 25.3 mph N/A   Mostly Cloudy
2:55 AM 26.6 °F 13.8 °F 8.6 °F 47% 30.13 in 10.0 mi North 17.3 mph 26.5 mph N/A   Overcast
3:15 AM 24.8 °F 10.7 °F 5.0 °F 43% 30.14 in 10.0 mi NNW 19.6 mph 27.6 mph N/A   Overcast
3:35 AM 24.8 °F 11.1 °F -0.4 °F 34% 30.15 in 10.0 mi North 18.4 mph 31.1 mph N/A   Overcast
3:55 AM 23.0 °F 10.1 °F -0.4 °F 36% 30.17 in 10.0 mi North 15.0 mph 31.1 mph N/A   Mostly Cloudy
4:15 AM 23.0 °F 10.6 °F -0.4 °F 36% 30.17 in 10.0 mi North 13.8 mph 24.2 mph N/A   Mostly Cloudy
4:35 AM 23.0 °F 9.6 °F -0.4 °F 36% 30.18 in 10.0 mi NNE 16.1 mph 20.7 mph N/A   Overcast
4:55 AM 21.2 °F 9.5 °F -0.4 °F 39% 30.20 in 10.0 mi North 11.5 mph 20.7 mph N/A   Overcast
5:15 AM 19.4 °F 5.0 °F -0.4 °F 42% 30.22 in 10.0 mi North 16.1 mph 24.2 mph N/A   Overcast
5:35 AM 19.4 °F 5.0 °F -2.2 °F 39% 30.22 in 10.0 mi North 16.1 mph 21.9 mph N/A   Overcast
5:55 AM 19.4 °F 6.6 °F -2.2 °F 39% 30.23 in 10.0 mi North 12.7 mph 20.7 mph N/A   Overcast
6:15 AM 19.4 °F 5.0 °F -2.2 °F 39% 30.24 in 10.0 mi North 16.1 mph 26.5 mph N/A   Overcast
6:35 AM 17.6 °F 2.7 °F -2.2 °F 42% 30.25 in 10.0 mi North 16.1 mph 21.9 mph N/A   Overcast
6:55 AM 17.6 °F 5.7 °F -2.2 °F 42% 30.26 in 10.0 mi North 10.4 mph - N/A   Overcast
7:15 AM 17.6 °F 3.2 °F -2.2 °F 42% 30.27 in 10.0 mi North 15.0 mph 26.5 mph N/A   Overcast
7:35 AM 17.6 °F 5.0 °F -4.0 °F 38% 30.28 in 10.0 mi North 11.5 mph 20.7 mph N/A   Overcast
7:55 AM 15.8 °F 0.3 °F -7.6 °F 35% 30.29 in 10.0 mi North 16.1 mph 23.0 mph N/A   Overcast
8:15 AM 15.8 °F -0.2 °F -4.0 °F 41% 30.30 in 10.0 mi North 17.3 mph 23.0 mph N/A   Overcast
8:35 AM 15.8 °F 2.7 °F -4.0 °F 41% 30.31 in 10.0 mi NNE 11.5 mph - N/A   Overcast
8:55 AM 15.8 °F 2.1 °F -4.0 °F 41% 30.32 in 10.0 mi NNE 12.7 mph 18.4 mph N/A   Overcast
9:15 AM 15.8 °F 2.7 °F -5.8 °F 38% 30.33 in 10.0 mi NNW 11.5 mph 19.6 mph N/A   Overcast
9:35 AM 15.8 °F 2.1 °F -9.4 °F 32% 30.35 in 10.0 mi North 12.7 mph 23.0 mph N/A   Overcast
9:55 AM 15.8 °F 2.1 °F -11.2 °F 30% 30.35 in 10.0 mi North 12.7 mph 21.9 mph N/A   Mostly Cloudy
10:15 AM 15.8 °F 2.1 °F -11.2 °F 30% 30.36 in 10.0 mi NNW 12.7 mph 18.4 mph N/A   Partly Cloudy
10:35 AM 15.8 °F 1.4 °F -11.2 °F 30% 30.36 in 10.0 mi North 13.8 mph 19.6 mph N/A   Clear
10:55 AM 15.8 °F 4.2 °F -11.2 °F 30% 30.37 in 10.0 mi NW 9.2 mph - N/A   Mostly Cloudy
11:15 AM 15.8 °F 2.1 °F -9.4 °F 32% 30.37 in 10.0 mi NW 12.7 mph - N/A   Mostly Cloudy
11:35 AM 15.8 °F 2.1 °F -9.4 °F 32% 30.37 in 10.0 mi NNW 12.7 mph 18.4 mph N/A   Mostly Cloudy
11:55 AM 15.8 °F 2.7 °F -9.4 °F 32% 30.37 in 10.0 mi NNW 11.5 mph 17.3 mph N/A   Mostly Cloudy
12:15 PM 15.8 °F 3.4 °F -9.4 °F 32% 30.36 in 10.0 mi North 10.4 mph 16.1 mph N/A   Mostly Cloudy
12:35 PM 15.8 °F 0.9 °F -11.2 °F 30% 30.36 in 10.0 mi NNW 15.0 mph 19.6 mph N/A   Overcast
12:55 PM 15.8 °F 3.4 °F -13.0 °F 27% 30.35 in 10.0 mi NW 10.4 mph 20.7 mph N/A   Mostly Cloudy
1:15 PM 17.6 °F 4.3 °F -13.0 °F 25% 30.34 in 10.0 mi NW 12.7 mph 19.6 mph N/A   Mostly Cloudy
1:35 PM 15.8 °F 0.9 °F -13.0 °F 27% 30.34 in 10.0 mi NNW 15.0 mph - N/A   Scattered Clouds
1:55 PM 15.8 °F 6.1 °F -13.0 °F 27% 30.33 in 10.0 mi NNW 6.9 mph - N/A   Partly Cloudy
2:15 PM 17.6 °F 7.3 °F -11.2 °F 27% 30.33 in 10.0 mi North 8.1 mph - N/A   Clear
2:35 PM 17.6 °F 5.0 °F -13.0 °F 25% 30.32 in 10.0 mi North 11.5 mph 18.4 mph N/A   Clear
2:55 PM 17.6 °F 5.0 °F -13.0 °F 25% 30.33 in 10.0 mi North 11.5 mph 16.1 mph N/A   Clear
3:15 PM 17.6 °F 3.7 °F -13.0 °F 25% 30.34 in 10.0 mi North 13.8 mph 18.4 mph N/A   Partly Cloudy
3:35 PM 15.8 °F 2.7 °F -13.0 °F 27% 30.34 in 10.0 mi NNW 11.5 mph 17.3 mph N/A   Mostly Cloudy
3:55 PM 15.8 °F 5.1 °F -13.0 °F 27% 30.34 in 10.0 mi North 8.1 mph 16.1 mph N/A   Overcast
4:15 PM 15.8 °F 2.7 °F -11.2 °F 30% 30.34 in 10.0 mi NNW 11.5 mph - N/A   Overcast
4:35 PM 15.8 °F 5.1 °F -11.2 °F 30% 30.35 in 10.0 mi North 8.1 mph - N/A   Overcast
4:55 PM 15.8 °F 6.1 °F -11.2 °F 30% 30.36 in 10.0 mi NNW 6.9 mph - N/A   Overcast
5:15 PM 15.8 °F 3.4 °F -11.2 °F 30% 30.37 in 10.0 mi NNW 10.4 mph 18.4 mph N/A   Overcast
5:35 PM 15.8 °F 5.1 °F -11.2 °F 30% 30.37 in 10.0 mi North 8.1 mph - N/A   Overcast
5:55 PM 15.8 °F 5.1 °F -11.2 °F 30% 30.37 in 10.0 mi North 8.1 mph - N/A   Overcast
6:15 PM 15.8 °F 7.2 °F -9.4 °F 32% 30.37 in 10.0 mi NNE 5.8 mph - N/A   Overcast
6:35 PM 15.8 °F 5.1 °F -9.4 °F 32% 30.37 in 10.0 mi North 8.1 mph - N/A   Overcast
6:55 PM 15.8 °F 6.1 °F -9.4 °F 32% 30.36 in 10.0 mi North 6.9 mph - N/A   Overcast
7:15 PM 15.8 °F 3.4 °F -9.4 °F 32% 30.36 in 10.0 mi NNE 10.4 mph - N/A   Overcast
7:35 PM 15.8 °F 2.1 °F -9.4 °F 32% 30.36 in 10.0 mi NNE 12.7 mph - N/A   Overcast
7:55 PM 15.8 °F 4.2 °F -9.4 °F 32% 30.37 in 10.0 mi North 9.2 mph 16.1 mph N/A   Overcast
8:15 PM 15.8 °F 2.1 °F -9.4 °F 32% 30.37 in 10.0 mi North 12.7 mph - N/A   Overcast
8:35 PM 15.8 °F 3.4 °F -7.6 °F 35% 30.37 in 10.0 mi NNE 10.4 mph - N/A   Overcast
8:55 PM 15.8 °F 2.7 °F -7.6 °F 35% 30.37 in 10.0 mi North 11.5 mph - N/A   Overcast
9:15 PM 15.8 °F 6.1 °F -7.6 °F 35% 30.38 in 10.0 mi NNE 6.9 mph - N/A   Overcast
9:35 PM 15.8 °F 5.1 °F -9.4 °F 32% 30.38 in 10.0 mi North 8.1 mph - N/A   Overcast
9:55 PM 15.8 °F 4.2 °F -7.6 °F 35% 30.39 in 10.0 mi North 9.2 mph - N/A   Overcast
10:15 PM 15.8 °F 4.2 °F -7.6 °F 35% 30.40 in 10.0 mi NNE 9.2 mph - N/A   Overcast
10:35 PM 14.0 °F 3.9 °F -7.6 °F 38% 30.40 in 10.0 mi NE 6.9 mph - N/A   Overcast
10:55 PM 14.0 °F 2.0 °F -7.6 °F 38% 30.40 in 10.0 mi NE 9.2 mph - N/A   Overcast
11:15 PM 14.0 °F 1.2 °F -7.6 °F 38% 30.41 in 10.0 mi NNE 10.4 mph - N/A   Overcast
11:35 PM 14.0 °F 2.9 °F -7.6 °F 38% 30.40 in 10.0 mi NNE 8.1 mph - N/A   Overcast
11:55 PM 14.0 °F 3.9 °F -7.6 °F 38% 30.40 in 10.0 mi NNE 6.9 mph - N/A   Overcast